Weather History for Borger, TX

Change the Weather History Date:

Tuesday, January 15, 2013

  Actual Average Record
Temperature  
Mean Temperature 27 °F 39 °F  
Max Temperature 33 °F 51 °F 75 °F (1999)
Min Temperature 20 °F 26 °F 1 °F (1972)
Degree Days  
Heating Degree Days 38 26  
Month to date heating degree days 472 408  
Since 1 July heating degree days 1715 1945  
Cooling Degree Days 0 0  
Month to date cooling degree days 0 0  
Year to date cooling degree days 0 0  
Moisture  
Dew Point 14 °F    
Average Humidity 62    
Maximum Humidity 77    
Minimum Humidity 47    
Precipitation  
Precipitation T in 0.01 in 0.39 in (1959)
Month to date precipitation 0.73 0.23  
Year to date precipitation 0.73 0.23  
Snow  
Snow T in - 3.70 in (1959)
Month to date snowfall 0.7  
Since 1 July snowfall 2.2  
Snow Depth 0.00 in    
Sea Level Pressure  
Sea Level Pressure 30.26 in    
Wind  
Wind Speed 4 mph (WSW)    
Max Wind Speed 12 mph    
Max Gust Speed 16 mph    
Visibility 10 miles    
Events      
T = Trace of Precipitation, MM = Missing Value Source: NWS Daily Summary

Daily Weather History Graph

Daily Weather History Graph

Search for Another Location

Airport:

Trip Planner

Search our weather history database for the weather conditions in past years. The results will help you decide how hot, cold, wet, or windy it might be!

Date:

Astronomy

Jan. 15, 2013 Rise Set
Actual Time 7:54 AM CST 5:55 PM CST
Civil Twilight 7:26 AM CST 6:23 PM CST
Nautical Twilight 6:55 AM CST 6:55 PM CST
Astronomical Twilight 6:24 AM CST 7:25 PM CST
Moon 10:11 AM CST (1/15) 10:36 PM CST (1/15)
Length of Visible Light 10h 56m
Length of Day
10h 01m
Waxing Crescent, 19% of the Moon is Illuminated
Jan 15
Waxing Crescent
Jan 18
First Quarter
Jan 26
Full
Feb 3
Last Quarter
Feb 10
New

Hourly Weather History & Observations

Time (CST) Temp. Windchill Dew Point Humidity Pressure Visibility Wind Dir Wind Speed Gust Speed Precip Events Conditions
12:51 AM 25.0 °F - 14.0 °F 63% 30.27 in 10.0 mi Calm Calm - N/A   Mostly Cloudy
1:51 AM 23.0 °F 17.0 °F 14.0 °F 68% 30.26 in 10.0 mi SE 4.6 mph - N/A   Overcast
2:51 AM 23.0 °F 14.7 °F 12.0 °F 63% 30.27 in 10.0 mi SE 6.9 mph - N/A   Overcast
3:51 AM 23.0 °F 17.0 °F 12.9 °F 65% 30.27 in 10.0 mi SSE 4.6 mph - N/A   Overcast
4:51 AM 21.0 °F - 12.0 °F 68% 30.27 in 10.0 mi Calm Calm - N/A   Clear
5:51 AM 21.0 °F - 12.0 °F 68% 30.26 in 10.0 mi Calm Calm - N/A   Clear
6:51 AM 21.9 °F - 14.0 °F 72% 30.27 in 10.0 mi Calm Calm - N/A   Overcast
7:51 AM 21.0 °F - 12.9 °F 71% 30.27 in 10.0 mi Calm Calm - N/A   Mostly Cloudy
8:51 AM 19.9 °F - 14.0 °F 78% 30.28 in 10.0 mi Calm Calm - N/A   Clear
9:51 AM 23.0 °F 17.0 °F 15.1 °F 72% 30.29 in 10.0 mi WNW 4.6 mph - N/A   Clear
10:51 AM 26.1 °F 19.4 °F 14.0 °F 60% 30.28 in 10.0 mi WNW 5.8 mph - N/A   Clear
11:51 AM 28.9 °F 21.1 °F 16.0 °F 58% 30.27 in 10.0 mi NNW 8.1 mph - N/A   Scattered Clouds
12:38 PM 30.2 °F 25.4 °F 15.8 °F 55% 30.18 in 10.0 mi Variable 4.6 mph - N/A   Overcast
1:51 PM 30.0 °F 22.4 °F 16.0 °F 56% 30.23 in 10.0 mi WNW 8.1 mph - N/A   Overcast
3:51 PM 32.0 °F 27.5 °F 15.1 °F 50% 30.23 in 10.0 mi West 4.6 mph - N/A   Mostly Cloudy
5:51 PM 30.0 °F 26.5 °F 14.0 °F 51% 30.25 in 10.0 mi WSW 3.5 mph - N/A   Clear
6:51 PM 28.9 °F 25.2 °F 14.0 °F 54% 30.26 in 10.0 mi SW 3.5 mph - N/A   Clear
7:51 PM 28.0 °F 22.8 °F 14.0 °F 56% 30.27 in 10.0 mi SW 4.6 mph - N/A   Clear
8:51 PM 26.1 °F 20.5 °F 15.1 °F 63% 30.28 in 10.0 mi WSW 4.6 mph - N/A   Clear
9:51 PM 24.1 °F 19.7 °F 15.1 °F 69% 30.27 in 10.0 mi SW 3.5 mph - N/A   Clear
10:51 PM 23.0 °F 15.8 °F 15.1 °F 72% 30.26 in 10.0 mi WSW 5.8 mph - N/A   Clear
11:51 PM 23.0 °F 14.7 °F 15.1 °F 72% 30.25 in 10.0 mi WSW 6.9 mph - N/A   Clear